Location: Milton Keynes
(52.0316°N, 0.7531°W)
Time: 19:39:50
(UTC+00:00)

Genesis I - Pass Details

Date: 24 January 2019
Orbit: 476 x 550 km, 64.5° (Epoch: 19 February)

Event Time Altitude Azimuth Distance (km) Brightness Sun altitude
Exits shadow 06:25:30 20° 260° (W) 1,309 4.7 -13.5°
Maximum altitude 06:27:59 42° 323° (NW) 794 3.7 -13.1°
Drops below altitude 10° 06:31:56 10° 35° (NE) 1,837 6.2 -12.5°
Sets 06:34:15 0° 42° (NE) 2,734 7.3 -12.2°
